Location: Ottawa
(45.4170°N, 75.7000°W)
Time: 15:57:55
(UTC-04:00)

Iridium 91 - Visible Passes

Search period start: 21 October 2014 00:00
Search period end: 31 October 2014 00:00
Orbit: 775 x 780 km, 86.4° (Epoch: 21 October)

Date Brightness Start Highest point End Pass type
(mag) Time Alt. Az. Time Alt. Az. Time Alt. Az.
28 Oct 8.5 06:40:50 10° NE 06:43:13 13° ENE 06:45:35 10° E visible
28 Oct 8.2 21:28:30 11° N 21:28:30 11° N 21:28:41 10° N visible
29 Oct 7.9 20:54:44 13° N 20:54:44 13° N 20:55:19 10° N visible
30 Oct 7.6 20:20:53 15° NNE 20:20:53 15° NNE 20:21:42 10° N visible
30 Oct 8.5 22:01:19 10° NNW 22:01:19 10° NNW 22:01:19 10° NNW visible
